This is the latest recevied weather packets stored in our database for station/object KC9DRE. If no packets are shown the sender has not sent any weather packets the latest 10 day(s).
| Time | Temp. | Humidity | Pressure | Rain* | Wind** | Luminosity | Snow |
|---|---|---|---|---|---|---|---|
| 1787694766 | 27.78° C | 49% | 1018.1 hPa | 0 mm | - | 296 W/m² | - |
| 1787694463 | 27.78° C | 49% | 1018.2 hPa | 0 mm | - | 311 W/m² | - |
| 1787694157 | 28.33° C | 48% | 1018.3 hPa | 0 mm | - | 329 W/m² | - |
| 1787693852 | 28.89° C | 48% | 1018.3 hPa | 0 mm | - | 343 W/m² | - |
| 1787693549 | 29.44° C | 44% | 1018.4 hPa | 0 mm | - | 352 W/m² | - |
| 1787693245 | 28.89° C | 44% | 1018.1 hPa | 0 mm | - | 371 W/m² | - |
| 1787692940 | 28.89° C | 48% | 1018.3 hPa | 0 mm | - | 387 W/m² | - |
| 1787692635 | 29.44° C | 46% | 1018.4 hPa | 0 mm | - | 398 W/m² | - |
| 1787692329 | 29.44° C | 44% | 1018.5 hPa | 0 mm | - | 408 W/m² | - |
| 1787692025 | 28.89° C | 46% | 1018.4 hPa | 0 mm | - | 428 W/m² | - |
| 1787691724 | 28.89° C | 45% | 1018.4 hPa | 0 mm | - | 441 W/m² | - |
| 1787691422 | 28.89° C | 45% | 1018.7 hPa | 0 mm | - | 457 W/m² | - |
| 1787691116 | 28.89° C | 47% | 1018.5 hPa | 0 mm | - | 463 W/m² | - |
| 1787690812 | 28.89° C | 45% | 1018.6 hPa | 0 mm | - | 488 W/m² | - |
| 1787690511 | 28.33° C | 45% | 1018.7 hPa | 0 mm | - | 503 W/m² | - |
| 1787690208 | 28.33° C | 46% | 1018.7 hPa | 0 mm | - | 523 W/m² | - |
| 1787689905 | 28.33° C | 47% | 1018.8 hPa | 0 mm | - | 538 W/m² | - |
| 1787689604 | 27.78° C | 48% | 1018.7 hPa | 0 mm | - | 553 W/m² | - |
| 1787689299 | 28.33° C | 49% | 1018.6 hPa | 0 mm | - | 576 W/m² | - |
| 1787688994 | 28.33° C | 49% | 1018.6 hPa | 0 mm | - | 587 W/m² | - |
| 1787688691 | 27.78° C | 46% | 1018.9 hPa | 0 mm | - | 597 W/m² | - |
| 1787688391 | 27.78° C | 48% | 1018.9 hPa | 0 mm | - | 608 W/m² | - |
| 1787688086 | 27.78° C | 50% | 1018.7 hPa | 0 mm | - | 621 W/m² | - |
| 1787687782 | 28.33° C | 48% | 1018.6 hPa | 0 mm | - | 628 W/m² | - |
| 1787687476 | 28.33° C | 49% | 1018.7 hPa | 0 mm | - | 656 W/m² | - |
* Rain latest hour (hover to see other rain measurements)
** Current wind speed in m/s (hover to see current wind gust speed)